Regional Weather Roundup
Issued by NWS

Home | Current Version | Previous Version | Graphics & Text | Print | Product List | Glossary On
Versions: 1 2 3 4 5 6 7 8 9 10 11 12 13 14 15 16 17 18 19 20 21 22 23 24 25 26 27
000
ASUS45 KBOU 150306
RWRCO

WEATHER ROUNDUP FOR COLORADO
NATIONAL WEATHER SERVICE DENVER/BOULDER CO
900 PM MDT MON APR 14 2014

NOTE: "FAIR" INDICATES FEW OR NO CLOUDS BELOW 12000 FEET WITH NO
SIGNIFICANT WEATHER AND/OR OBSTRUCTIONS TO VISIBILITY.

COZ001>005-013-030-031-150400-
...NORTHWEST COLORADO...

CITY           SKY/WX    TMP DP  RH WIND       PRES   REMARKS
CRAIG          CLEAR     29  18  63 CALM      30.22S
HAYDEN         CLEAR     30  18  59 E7        30.24S WCI  23
MEEKER         CLEAR     32  21  64 NE6       30.24R WCI  26
MOUNT WERNER   CLEAR     18   9  68 W12       30.21S WCI   5
STEAMBOAT SPGS CLEAR     28  16  59 E6        30.23S WCI  22
WALDEN         CLEAR     21  12  68 S8        30.19S WCI  12
$$

COZ006>008-011-150400-
...WEST CENTRAL VALLEYS...

CITY           SKY/WX    TMP DP  RH WIND       PRES   REMARKS
GRAND JUNCTION CLEAR     38  28  67 E3        30.24R
MONTROSE       CLEAR     37  23  56 E5        30.28R
EAGLE          PTCLDY    36  12  38 W8        30.27R
RIFLE          CLEAR     39  18  42 CALM      30.26R
DELTA          CLEAR     40  27  59 N6        30.28R
NUCLA            N/A     39  14  35 NW7       30.28R
$$

COZ017>023-064>068-150400-
...SOUTHWEST COLORADO...

CITY           SKY/WX    TMP DP  RH WIND       PRES   REMARKS
DURANGO        CLEAR     41   2  19 SW9       30.15R
CORTEZ         CLEAR     41   9  26 N8        30.23R
PAGOSA SPRINGS CLEAR     35   5  27 CALM      30.20R
TELLURIDE      PTCLDY    28  16  59 CALM      30.27R
WOLF CREEK PAS PTCLDY    19   3  49 SW13      30.26R WCI   7
$$

COZ009-010-012-014-032>034-037-058>063-150400-
...CENTRAL COLORADO...

CITY           SKY/WX    TMP DP  RH WIND       PRES   REMARKS
ASPEN          PTCLDY    30  10  43 W7        30.24R WCI  23
BUENA VISTA    PTCLDY    32   6  33 NW8G18    30.17R WCI  25
COPPER MTN     PTCLDY    14   5  67 W17       30.21R WCI  -3
BERTHOUD PASS  LGT SNOW   5  -4  66 NW39G46   30.12R WCI -22
COTTONWOOD PAS PTCLDY    30  -4  22 NW14G26   30.16R WCI  20
GUNNISON       PTCLDY    30  12  47 SW8       30.26R WCI  23
KREMMLING      CLEAR     30  18  59 CALM      30.25R
LEADVILLE      PTCLDY    18   5  57 N8        30.19R WCI   8
MONARCH PASS   CLEAR     12   9  85 SW28      30.30R WCI  -9
SALIDA         PTCLDY    37  13  36 W22G29    30.24R
SUNLIGHT       PTCLDY    19  16  86 SW3       30.26R
WILKERSON PASS PTCLDY    18   3  53 W7        30.19R WCI   8
$$

COZ069>075-150400-
...SAN LUIS VALLEY/SANGRE DE CRISTO MOUNTAINS...

CITY           SKY/WX    TMP DP  RH WIND       PRES   REMARKS
ALAMOSA        CLEAR     37   9  31 NW3       30.17R
LA VETA PASS   CLEAR     23  10  58 W7        30.17R WCI  15
SAGUACHE       CLEAR     34   7  32 NW10      30.21R WCI  26
$$

COZ035-036-038>040-150400-
...NORTHERN COLORADO FRONT RANGE...

CITY           SKY/WX    TMP DP  RH WIND       PRES   REMARKS
DENVER INTL AP PTCLDY    28  22  78 SE9       30.16R WCI  19
DMNS CITY PARK   N/A     34  19  52 SE3       30.17R
AURORA         PTCLDY    28  18  64 S9        30.16R WCI  20
FRONT RANGE AP NOT AVBL
ERIE MUNI ARPT CLEAR     35  21  55 CALM      30.15S
BOULDER MUN AP CLEAR     36  27  69 SW3       30.15R
CENTENNIAL     PTCLDY    30  20  66 SE6       30.16R WCI  24
BROOMFIELD     PTCLDY    36  19  51 SE3       30.16R
FORT COLLINS   CLEAR     30  21  69 S8        30.17R WCI  23
LONGMONT       CLEAR     38  21  49 CALM      30.17S
$$

COZ041-046-047-076>085-087-088-150400-
...PIKES PEAK/PALMER DIVIDE AND SOUTHERN FOOTHILLS...

CITY           SKY/WX    TMP DP  RH WIND       PRES   REMARKS
COLO. SPRINGS  PTCLDY    28  22  78 S8        30.20R WCI  20
A. F. ACADEMY  CLEAR     28  23  79 S8        30.18R WCI  20
ELLICOTT       NOT AVBL
FALCON         CLEAR     26  22  82 SW7       30.18R WCI  19
FORT CARSON    CLEAR     28  23  79 SW7       30.19R WCI  21
LIMON          CLEAR     25  22  88 CALM      30.19R
MONUMENT HILL  CLEAR     25  19  80 S6        30.15R WCI  18
TRINIDAD       CLEAR     30  23  75 CALM      30.21R
$$

COZ042>045-048>051-090-091-150400-
...NORTHEAST COLORADO...

CITY           SKY/WX    TMP DP  RH WIND       PRES   REMARKS
GREELEY ARPT   CLEAR     32  19  59 S7        30.17R WCI  26
AKRON          CLEAR     28  17  63 CALM      30.16S
BURLINGTON     CLEAR     27  19  72 W9        30.21R WCI  18
WRAY           CLEAR     30  25  80 W5        30.18R WCI  26
STERLING       CLEAR     32  25  74 SW7       30.16R WCI  26
HOLYOKE        CLEAR     36  23  60 NW7       30.17R
FORT MORGAN    CLEAR     32  18  56 S5        30.17S WCI  27
$$

COZ086-089-092>099-150400-
...SOUTHEAST COLORADO...

CITY           SKY/WX    TMP DP  RH WIND       PRES   REMARKS
PUEBLO         CLEAR     37  24  59 S3        30.21R
LA JUNTA       CLEAR     37  18  46 SE5       30.22R
LAMAR          CLEAR     33  13  43 E6        30.22R WCI  28
SPRINGFIELD      N/A     26  18  71 CALM      30.24R
$$



USA.gov is the U.S. government's official web portal to all federal, state and local government web resources and services.